City of Derry Airport

Jump to: basic info | weather | frequencies | runways | comments

Related pages: nearby airports | nearby navaids | notams | map

Basic information (top)

Codes: LDY EGAE
Location: lon 55.042801, lat -7.161110, elev 22 ft / 7 m msl
Status: medium_airport
Scheduled airline service: yes
Links: Wikipedia Mobile

Weather (top)

Current conditions (rec'd 2015/01/26 15:50Z):

EGAE 261550Z 28013KT 9999 FEW026 07/04 Q1025

Airport forecast for Belfast International Airport 40nm (74km) SE (rec'd 2015/01/26 00:15Z):

TAF TAF EGAA 262303Z 2700/2724 24012KT 9999 FEW014 BKN028 PROB30 
      TEMPO 2700/2715 7000 -RA BKN012 
      TEMPO 2715/2724 7000 -RA BKN010 PROB30 
      TEMPO 2717/2724 4000 RADZ BKN006

Frequencies (top)

Verify before use: may be inaccurate or out of date.

APP: 123.625 MHz (APP)
TWR: 134.15 MHz (TWR)

Runways (top)

02/20: 3,955 x 148 ft (1,205 x 45 m) — paved — lighted — threshold 02 displaced 435 ft (133 m)

08/26: 6,076 x 147 ft (1,852 x 45 m) — paved — lighted — threshold 08 displaced 433 ft (132 m)

Latest comments (top)

Excellant airport: You have full services ils , fuel car ... [read]

More... (top)

See also NOTAMs and nearby airports and navaids, or visit the City of Derry Airport page at the main OurAirports website..